FW7055 Weather Reports


Display with metric or nautical units.
time (UTC)temp
F
wind
direction
speed
MPH
gust
MPH
rain 1hr
in
rain 24hr
in
rain mn
in
humidity
%
barometer
mb
20260503202345 75 1 5.0 7.0 0.00 0.00 0.00 51 1012.8
20260503201843 74 124 6.0 10.0 0.00 0.00 0.00 52 1012.9
20260503201340 73 239 5.0 6.0 0.00 0.00 0.00 54 1012.9
20260503200837 73 256 7.0 8.0 0.00 0.00 0.00 54 1013.0
20260503200333 72 252 4.0 6.0 0.00 0.00 0.00 54 1013.0
20260503195830 72 49 4.0 6.0 0.00 0.00 0.00 53 1013.3
20260503195327 72 250 4.0 6.0 0.00 0.00 0.00 54 1013.2
20260503194824 71 40 1.0 2.0 0.00 0.00 0.00 57 1013.3
20260503194320 74 235 4.0 6.0 0.00 0.00 0.00 54 1013.3
20260503193816 74 12 2.0 2.0 0.00 0.00 0.00 55 1013.3
20260503193312 74 26 4.0 6.0 0.00 0.00 0.00 54 1013.2
20260503192808 72 359 4.0 6.0 0.00 0.00 0.00 58 1013.5
20260503192305 73 291 6.0 6.0 0.00 0.00 0.00 58 1013.7
20260503191800 72 217 5.0 6.0 0.00 0.00 0.00 59 1013.7
20260503191257 73 194 2.0 2.0 0.00 0.00 0.00 59 1013.9
20260503190754 71 300 1.0 2.0 0.00 0.00 0.00 56 1013.8
20260503190251 72 35 4.0 5.0 0.00 0.00 0.00 59 1013.7
20260503185748 71 245 4.0 5.0 0.00 0.00 0.00 59 1013.9
20260503185244 70 254 5.0 7.0 0.00 0.00 0.00 61 1014.0
20260503184738 70 268 6.0 7.0 0.00 0.00 0.00 59 1014.0
20260503184235 71 288 3.0 3.0 0.00 0.00 0.00 59 1014.0
20260503183731 73 256 7.0 10.0 0.00 0.00 0.00 58 1014.0
20260503183229 71 145 2.0 3.0 0.00 0.00 0.00 59 1014.1
20260503182727 72 226 0.0 1.0 0.00 0.00 0.00 59 1013.9
20260503182225 71 228 3.0 3.0 0.00 0.00 0.00 60 1014.1
20260503181722 72 185 2.0 2.0 0.00 0.00 0.00 58 1014.2
20260503181219 71 25 4.0 6.0 0.00 0.00 0.00 59 1014.1
20260503180715 70 245 3.0 3.0 0.00 0.00 0.00 62 1014.3
20260503180214 69 245 4.0 5.0 0.00 0.00 0.00 63 1014.4
20260503175710 69 273 5.0 6.0 0.00 0.00 0.00 63 1014.4
20260503175208 70 270 2.0 2.0 0.00 0.00 0.00 62 1014.4
20260503174703 71 268 4.0 6.0 0.00 0.00 0.00 60 1014.3
20260503174201 73 109 3.0 5.0 0.00 0.00 0.00 58 1014.3
20260503173656 72 122 0.0 1.0 0.00 0.00 0.00 59 1014.4
20260503173152 71 354 5.0 6.0 0.00 0.00 0.00 61 1014.6
20260503172650 70 25 3.0 5.0 0.00 0.00 0.00 62 1014.6
20260503172147 70 240 1.0 2.0 0.00 0.00 0.00 63 1014.5
20260503171643 70 15 3.0 5.0 0.00 0.00 0.00 63 1014.3
20260503171141 70 20 4.0 5.0 0.00 0.00 0.00 62 1014.6
20260503170638 70 77 1.0 2.0 0.00 0.00 0.00 61 1014.8
20260503170134 71 120 2.0 3.0 0.00 0.00 0.00 62 1014.6
20260503150526 63 34 1.0 1.0 0.00 0.00 0.00 74 1015.0
20260503131419 53 98 1.0 1.0 0.00 0.00 0.00 99 1014.9
20260503130916 53 99 0.0 0.0 0.00 0.00 0.00 99 1014.6
20260503130413 53 99 0.0 0.0 0.00 0.00 0.00 99 1014.9
20260503110817 56 93 2.0 2.0 0.00 0.00 0.00 93 1015.0
20260503110314 56 90 1.0 1.0 0.00 0.00 0.00 93 1014.9
20260503100240 56 95 1.0 1.0 0.00 0.00 0.00 88 1015.1
20260503090200 57 97 2.0 2.0 0.00 0.00 0.00 84 1014.8
20260503081630 58 97 1.0 1.0 0.00 0.00 0.00 75 1014.9
20260503081127 59 101 1.0 2.0 0.00 0.00 0.00 77 1014.9
20260503080623 59 101 1.0 1.0 0.00 0.00 0.00 75 1015.0
20260503080120 59 101 1.0 1.0 0.00 0.00 0.00 75 1014.7
20260503072557 60 113 1.0 1.0 0.00 0.00 0.00 73 1014.7
20260503072054 61 113 2.0 2.0 0.00 0.00 0.00 72 1014.7
20260503071550 61 114 0.0 1.0 0.00 0.00 0.00 70 1014.8
20260503071047 62 113 1.0 1.0 0.00 0.00 0.00 69 1014.9
20260503070543 62 113 1.0 1.0 0.00 0.00 0.00 66 1014.9
20260503054957 66 24 3.0 5.0 0.00 0.01 0.01 55 1014.4
20260503054453 66 41 4.0 5.0 0.00 0.01 0.01 54 1014.5
20260503053951 66 52 3.0 5.0 0.00 0.01 0.01 54 1014.3
20260503053449 66 22 4.0 5.0 0.00 0.01 0.01 54 1014.5
20260503052945 66 40 3.0 6.0 0.00 0.01 0.01 55 1014.4
20260503052443 66 38 3.0 3.0 0.00 0.01 0.01 55 1014.5
20260503051938 66 26 5.0 7.0 0.00 0.01 0.01 55 1014.4
20260503051434 66 64 1.0 1.0 0.00 0.01 0.01 57 1014.6
20260503050932 66 60 3.0 5.0 0.00 0.01 0.01 56 1014.4
20260503050427 67 75 2.0 2.0 0.00 0.01 0.01 57 1014.5
20260503045926 67 55 1.0 2.0 0.00 0.01 0.01 56 1014.4
20260503045423 66 77 2.0 3.0 0.00 0.01 0.01 56 1014.4
20260503044919 67 44 3.0 3.0 0.00 0.01 0.01 57 1014.3
20260503044416 67 36 3.0 3.0 0.00 0.01 0.01 58 1014.2
20260503043914 66 72 6.0 8.0 0.00 0.01 0.01 58 1014.2
20260503043410 66 35 4.0 6.0 0.00 0.01 0.01 60 1014.3
20260503042907 66 36 4.0 6.0 0.00 0.01 0.01 61 1014.0
20260503042403 65 22 3.0 3.0 0.00 0.01 0.01 63 1014.1
20260503041859 65 80 1.0 2.0 0.00 0.01 0.01 66 1014.0
20260503041357 65 80 1.0 1.0 0.00 0.01 0.01 64 1014.1
20260503040854 66 96 2.0 2.0 0.00 0.01 0.01 65 1014.1
20260503040352 66 54 1.0 1.0 0.00 0.01 0.01 64 1013.8
20260503035848 65 46 1.0 1.0 0.00 0.01 0.01 65 1013.9
20260503035345 65 41 1.0 1.0 0.00 0.01 0.01 66 1013.6
20260503034843 65 64 0.0 0.0 0.00 0.01 0.01 67 1013.5
20260503034340 65 74 2.0 2.0 0.00 0.01 0.01 67 1013.5
20260503033837 65 75 0.0 0.0 0.00 0.01 0.01 67 1013.5
20260503033335 64 111 0.0 0.0 0.00 0.01 0.01 67 1013.5
20260503032832 65 111 0.0 0.0 0.00 0.01 0.01 68 1013.5
20260503032331 65 111 0.0 0.0 0.00 0.01 0.01 66 1013.2
20260503031828 66 112 0.0 1.0 0.00 0.01 0.01 65 1013.2
20260503031326 66 111 0.0 1.0 0.00 0.01 0.01 64 1013.1
20260503030822 66 27 0.0 2.0 0.00 0.01 0.01 64 1013.3
20260503030319 67 213 1.0 2.0 0.00 0.01 0.01 64 1013.2
20260503025815 67 99 0.0 1.0 0.00 0.01 0.01 62 1013.0
20260503025313 68 48 1.0 1.0 0.00 0.01 0.01 61 1012.9
20260503024809 68 123 1.0 1.0 0.00 0.01 0.01 60 1012.9
20260503024306 68 172 2.0 2.0 0.00 0.01 0.01 61 1012.9
20260503023803 69 261 4.0 5.0 0.00 0.01 0.01 58 1013.1
20260503023300 70 124 1.0 1.0 0.00 0.01 0.01 59 1012.9
20260503022756 70 150 0.0 0.0 0.00 0.01 0.01 58 1012.8
20260503022251 70 33 2.0 2.0 0.00 0.01 0.01 58 1013.0
20260503021748 71 162 2.0 2.0 0.00 0.01 0.01 56 1013.1
20260503021244 71 273 1.0 2.0 0.00 0.01 0.01 56 1012.8
20260503020742 71 96 1.0 1.0 0.00 0.01 0.01 56 1013.1
20260503020239 72 160 0.0 1.0 0.00 0.01 0.01 56 1013.0
20260503015735 71 51 2.0 3.0 0.00 0.01 0.01 56 1012.8
20260503015232 71 38 3.0 5.0 0.00 0.01 0.01 56 1012.9
20260503014728 72 233 1.0 2.0 0.00 0.01 0.01 55 1012.9
20260503014227 72 21 3.0 3.0 0.00 0.01 0.01 55 1012.7
20260503013723 72 63 2.0 2.0 0.00 0.01 0.01 54 1012.9
20260503013221 73 41 2.0 2.0 0.00 0.01 0.01 53 1012.9
20260503012718 73 250 3.0 3.0 0.00 0.01 0.01 54 1013.0
20260503012215 72 348 3.0 3.0 0.00 0.01 0.01 55 1013.1
20260503011712 72 28 3.0 5.0 0.00 0.01 0.01 54 1013.1
20260503011209 72 39 1.0 1.0 0.00 0.01 0.01 54 1013.0
20260503010705 73 322 3.0 3.0 0.00 0.01 0.01 53 1013.2
20260503010202 73 40 2.0 2.0 0.00 0.01 0.01 53 1012.8
20260503005659 73 31 3.0 3.0 0.00 0.01 0.01 54 1013.1
20260503005156 73 91 1.0 2.0 0.00 0.01 0.01 55 1013.2
20260503004652 73 16 3.0 5.0 0.00 0.01 0.01 53 1013.2
20260503004151 73 26 2.0 3.0 0.00 0.01 0.01 52 1013.4
20260503003648 72 43 1.0 2.0 0.00 0.01 0.01 54 1013.5
20260503003145 73 252 3.0 3.0 0.00 0.01 0.01 54 1013.2
20260503002641 73 298 3.0 5.0 0.00 0.01 0.01 55 1013.2
20260503002138 72 47 2.0 2.0 0.00 0.01 0.01 55 1013.3
20260503001634 73 285 8.0 10.0 0.00 0.01 0.01 54 1013.3
20260503001131 73 202 2.0 2.0 0.00 0.01 0.01 53 1013.4
20260503000629 72 209 3.0 5.0 0.00 0.01 0.01 55 1013.3
20260503000126 72 42 3.0 5.0 0.00 0.01 0.01 53 1013.6
20260502235622 73 17 3.0 5.0 0.00 0.01 0.01 54 1013.4
20260502235121 73 144 1.0 1.0 0.00 0.01 0.01 52 1013.4
20260502234616 73 2 2.0 2.0 0.00 0.01 0.01 52 1013.6
20260502234114 73 7 3.0 3.0 0.00 0.01 0.01 52 1013.8
20260502233609 72 204 3.0 5.0 0.00 0.01 0.01 53 1013.7
20260502233107 73 335 7.0 11.0 0.00 0.01 0.01 51 1013.8
20260502232602 73 183 1.0 1.0 0.00 0.01 0.01 51 1014.0
20260502232100 73 42 3.0 6.0 0.00 0.01 0.01 51 1013.8
20260502231557 72 17 3.0 5.0 0.00 0.01 0.01 53 1014.2
20260502231055 73 305 3.0 5.0 0.00 0.01 0.01 54 1014.2
20260502230553 72 359 4.0 5.0 0.00 0.01 0.01 54 1014.3
20260502230051 72 14 2.0 2.0 0.00 0.01 0.01 54 1014.2
20260502225546 71 269 11.0 13.0 0.00 0.01 0.01 54 1014.3
20260502225043 72 233 6.0 7.0 0.00 0.01 0.01 55 1014.4
20260502224539 72 248 6.0 9.0 0.00 0.01 0.01 56 1014.5
20260502224037 72 45 3.0 6.0 0.00 0.01 0.01 58 1014.6
20260502223534 73 8 3.0 3.0 0.00 0.01 0.01 57 1014.3
20260502223033 73 26 3.0 3.0 0.00 0.01 0.01 56 1014.7
20260502222529 70 11 3.0 3.0 0.00 0.01 0.01 60 1014.7
20260502222026 70 294 3.0 5.0 0.00 0.01 0.01 60 1015.0
20260502221521 70 242 1.0 1.0 0.00 0.01 0.01 61 1015.0
20260502221019 69 257 4.0 6.0 0.00 0.01 0.01 63 1014.9
20260502220514 70 228 3.0 3.0 0.00 0.01 0.01 63 1015.0
20260502220011 69 229 4.0 6.0 0.00 0.01 0.01 63 1015.1
20260502215509 70 255 3.0 3.0 0.00 0.01 0.01 64 1015.1
20260502215005 70 322 7.0 9.0 0.00 0.01 0.01 63 1015.3
20260502214503 68 193 3.0 3.0 0.00 0.01 0.01 64 1015.2
20260502214000 68 236 5.0 6.0 0.00 0.01 0.01 64 1015.1
20260502213456 70 255 3.0 3.0 0.00 0.01 0.01 61 1015.4
20260502212955 70 256 7.0 8.0 0.00 0.01 0.01 61 1015.4
20260502212453 70 88 1.0 2.0 0.00 0.01 0.01 63 1015.5
20260502211950 69 359 6.0 8.0 0.00 0.01 0.01 64 1015.4
20260502211446 69 49 2.0 2.0 0.00 0.01 0.01 65 1015.5
20260502210943 68 346 2.0 2.0 0.00 0.01 0.01 65 1015.4
20260502210440 68 244 2.0 2.0 0.00 0.01 0.01 68 1015.6
20260502205937 67 214 2.0 2.0 0.00 0.01 0.01 67 1015.6
20260502205433 68 238 7.0 8.0 0.00 0.01 0.01 68 1015.6
20260502204931 68 224 6.0 9.0 0.00 0.01 0.01 67 1015.7
20260502204428 67 36 1.0 2.0 0.00 0.01 0.01 68 1016.1
20260502203926 67 355 3.0 3.0 0.00 0.01 0.01 69 1016.0
20260502203423 67 41 1.0 3.0 0.00 0.01 0.01 71 1016.0
20260502202918 68 301 3.0 3.0 0.00 0.01 0.01 70 1015.9